This is the latest recevied weather packets stored in our database for station/object LZ2SLL-13. If no packets are shown the sender has not sent any weather packets the latest 10 day(s).
| Time | Temp. | Humidity | Pressure | Rain* | Wind** | Luminosity | Snow |
|---|---|---|---|---|---|---|---|
| 1777544638 | 9.44° C | 91% | - | 0 mm | - | 139 W/m² | - |
| 1777544337 | 9.44° C | 92% | - | 0.25 mm | - | 135 W/m² | - |
| 1777544037 | 9.44° C | 91% | - | 0.25 mm | - | 95 W/m² | - |
| 1777543736 | 9.44° C | 90% | - | 0.51 mm | - | 98 W/m² | - |
| 1777543436 | 9.44° C | 89% | - | 1.02 mm | - | 138 W/m² | - |
| 1777543135 | 9.44° C | 90% | - | 1.02 mm | - | 156 W/m² | - |
| 1777542834 | 9.44° C | 91% | - | 1.02 mm | - | 212 W/m² | - |
| 1777542534 | 9.44° C | 90% | - | 1.02 mm | - | 209 W/m² | - |
| 1777542233 | 9.44° C | 90% | - | 1.02 mm | - | 171 W/m² | - |
| 1777541933 | 9.44° C | 91% | - | 0.76 mm | - | 164 W/m² | - |
| 1777541632 | 9.44° C | 92% | - | 0.76 mm | - | 223 W/m² | - |
| 1777541332 | 9.44° C | 93% | - | 0.76 mm | - | 202 W/m² | - |
| 1777541031 | 9.44° C | 94% | - | 0.76 mm | - | 156 W/m² | - |
| 1777540730 | 9.44° C | 95% | - | 0.51 mm | - | 50 W/m² | - |
| 1777540430 | 9.44° C | 94% | - | 0.51 mm | - | 105 W/m² | - |
| 1777540129 | 9.44° C | 92% | - | 0.25 mm | - | 56 W/m² | - |
| 1777539828 | 9.44° C | 91% | - | 0 mm | - | 62 W/m² | - |
| 1777539528 | 9.44° C | 91% | - | 0 mm | - | 155 W/m² | - |
| 1777539227 | 9.44° C | 90% | - | 0 mm | - | 115 W/m² | - |
| 1777538927 | 9.44° C | 91% | - | 0 mm | - | 90 W/m² | - |
| 1777538626 | 9.44° C | 91% | - | 0 mm | - | 62 W/m² | - |
| 1777538326 | 9.44° C | 91% | - | 0 mm | - | 109 W/m² | - |
| 1777538025 | 9.44° C | 92% | - | 0 mm | - | 104 W/m² | - |
| 1777537725 | 9.44° C | 92% | - | 0 mm | - | 86 W/m² | - |
| 1777537424 | 9.44° C | 92% | - | 0 mm | - | 103 W/m² | - |
* Rain latest hour (hover to see other rain measurements)
** Current wind speed in m/s (hover to see current wind gust speed)